Weather History for KROA - April, 2013

Change the Weather History Date:

Saturday, April 13, 2013

  Actual Average Record
Temperature  
Mean Temperature 64 °F 56 °F  
Max Temperature 74 °F 67 °F 89 °F (1930)
Min Temperature 53 °F 45 °F 25 °F (1990)
Degree Days  
Heating Degree Days 1 10  
Month to date heating degree days 124 147  
Since 1 July heating degree days 3765 3904  
Cooling Degree Days 0 1  
Month to date cooling degree days 32 5  
Year to date cooling degree days 32 10  
Growing Degree Days 13 (Base 50)    
Moisture  
Dew Point 30 °F    
Average Humidity 32    
Maximum Humidity 46    
Minimum Humidity 17    
Precipitation  
Precipitation 0.00 in 0.11 in 1.05 in (1949)
Month to date precipitation 1.91 1.46  
Year to date precipitation 14.60 10.73  
Snow  
Snow 0.00 in - - ()
Month to date snowfall 1.0  
Since 1 July snowfall 18.3  
Snow Depth 0.00 in    
Sea Level Pressure  
Sea Level Pressure 29.91 in    
Wind  
Wind Speed 12 mph (WNW)    
Max Wind Speed 31 mph    
Max Gust Speed 40 mph    
Visibility 10 miles    
Events      
T = Trace of Precipitation, MM = Missing Value Source: NWS Daily Summary

Daily Weather History Graph

Daily Weather History Graph

Search for Another Location

Airport or City:

Trip Planner

Search our weather history database for the weather conditions in past years. The results will help you decide how hot, cold, wet, or windy it might be!

Date:

Astronomy

Apr. 13, 2013 Rise Set
Actual Time 6:47 AM EDT 7:53 PM EDT
Civil Twilight 6:20 AM EDT 8:20 PM EDT
Nautical Twilight 5:49 AM EDT 8:52 PM EDT
Astronomical Twilight 5:15 AM EDT 9:25 PM EDT
Moon 8:41 AM EDT (4/13) 11:12 PM EDT (4/13)
Length of Visible Light 13h 59m
Length of Day
13h 05m
Waxing Crescent, 10% of the Moon is Illuminated
Apr 13
Waxing Crescent
Apr 18
First Quarter
Apr 25
Full
May 2
Last Quarter
May 9
New

Hourly Weather History & Observations

Time (EDT) Temp. Dew Point Humidity Pressure Visibility Wind Dir Wind Speed Gust Speed Precip Events Conditions
12:54 AM 55.9 °F 33.1 °F 42% 29.84 in 10.0 mi NW 23.0 mph 31.1 mph N/A   Clear
1:54 AM 55.0 °F 30.9 °F 40% 29.83 in 10.0 mi NW 11.5 mph 21.9 mph N/A   Clear
2:54 AM 55.9 °F 30.0 °F 37% 29.84 in 10.0 mi WNW 23.0 mph 33.4 mph N/A   Clear
3:54 AM 55.0 °F 30.9 °F 40% 29.85 in 10.0 mi WNW 19.6 mph 33.4 mph N/A   Clear
4:54 AM 54.0 °F 32.0 °F 43% 29.86 in 10.0 mi NW 15.0 mph 20.7 mph N/A   Clear
5:54 AM 53.1 °F 33.1 °F 47% 29.88 in 10.0 mi West 9.2 mph - N/A   Partly Cloudy
6:54 AM 53.1 °F 34.0 °F 48% 29.90 in 10.0 mi WNW 16.1 mph 20.7 mph N/A   Scattered Clouds
7:54 AM 54.0 °F 34.0 °F 47% 29.94 in 10.0 mi WNW 12.7 mph - N/A   Partly Cloudy
8:54 AM 55.0 °F 32.0 °F 42% 29.95 in 10.0 mi WNW 13.8 mph 23.0 mph N/A   Partly Cloudy
9:54 AM 57.0 °F 33.1 °F 40% 29.96 in 10.0 mi WNW 16.1 mph 24.2 mph N/A   Partly Cloudy
10:54 AM 60.1 °F 34.0 °F 38% 29.96 in 10.0 mi North 9.2 mph - N/A   Clear
11:54 AM 62.1 °F 35.1 °F 37% 29.96 in 10.0 mi West 9.2 mph - N/A   Clear
12:54 PM 64.9 °F 35.1 °F 33% 29.94 in 10.0 mi SW 10.4 mph - N/A   Clear
1:54 PM 66.9 °F 32.0 °F 27% 29.92 in 10.0 mi WSW 13.8 mph 21.9 mph N/A   Clear
2:54 PM 70.0 °F 30.0 °F 23% 29.90 in 10.0 mi West 13.8 mph 21.9 mph N/A   Clear
3:54 PM 72.0 °F 28.0 °F 20% 29.88 in 10.0 mi West 11.5 mph 20.7 mph N/A   Clear
4:54 PM 72.0 °F 27.0 °F 19% 29.88 in 10.0 mi NW 15.0 mph 26.5 mph N/A   Clear
5:54 PM 71.1 °F 24.1 °F 17% 29.89 in 10.0 mi WNW 20.7 mph 33.4 mph N/A   Clear
6:54 PM 70.0 °F 26.1 °F 19% 29.92 in 10.0 mi WNW 15.0 mph - N/A   Clear
7:54 PM 66.0 °F 25.0 °F 21% 29.94 in 10.0 mi WNW 8.1 mph - N/A   Clear
8:54 PM 64.0 °F 26.1 °F 24% 29.96 in 10.0 mi West 10.4 mph - N/A   Clear
9:54 PM 63.0 °F 26.1 °F 25% 29.98 in 10.0 mi West 5.8 mph - N/A   Clear
10:54 PM 61.0 °F 27.0 °F 27% 29.99 in 10.0 mi West 3.5 mph - N/A   Clear
11:54 PM 60.1 °F 26.1 °F 27% 30.00 in 10.0 mi Calm Calm - N/A   Clear